Regional Weather Roundup
Issued by NWS Grand Forks, ND

Home | Current Version | Previous Version | Graphics & Text | Print | Product List | Glossary On
Versions: 1 2 3 4 5 6 7 8 9 10 11 12 13 14 15 16 17 18 19 20 21 22 23 24 25 26 27 28 29 30 31 32 33 34 35 36 37 38 39 40 41 42 43 44 45 46 47 48 49 50
000
ASUS43 KFGF 020231
RWRFGF
PRAIRIE TO PINES  WEATHER ROUNDUP
NATIONAL WEATHER SERVICE EASTERN NORTH DAKOTA/GRAND FORKS ND
900 PM CDT WED OCT 01 2014

 **SATELLITE DATA USED TO AUGMENT SKY COVER AT AUTOMATED STATIONS**
 *****  WEATHER ACROSS EASTERN NORTH DAKOTA  *****

CITY           SKY/WX    TMP DP  RH WIND       PRES   REMARKS
GRAND FORKS    CLOUDY    60  51  72 W5        29.71R
GRAND FRKS AFB CLOUDY    60  52  76 W8        29.73R
GRAND FRKS NWS   N/A     57 N/A N/A W5          N/A
DEVILS LAKE    CLOUDY    55  45  67 W15       29.74R
FARGO          CLOUDY    62  51  67 SW8       29.76R
WAHPETON ARPT  MOCLDY    55  46  71 W5        29.79S
$$

 ***** WEATHER ACROSS CENTRAL AND WESTERN NORTH DAKOTA  *****

CITY           SKY/WX    TMP DP  RH WIND       PRES   REMARKS
BISMARCK       CLOUDY    57  49  74 W8        29.84R
MINOT          PTCLDY    51  44  77 SW8       29.79R
JAMESTOWN      CLOUDY    57  50  77 W8        29.79R
MINOT AFB      CLEAR     49  48  97 W9        29.78R
GARRISON         N/A     51  45  79 W8        29.82R
WILLISTON      MOCLDY    51  44  77 SW8       29.83R
DICKINSON      LGT RAIN  50  46  86 W7        29.87R
HETTINGER      CLOUDY    50  43  77 W8        29.90R
$$

 *****  OTHER AIRPORT OBSERVATIONS IN OUR AREA  *****

CITY           SKY/WX    TMP DP  RH WIND       PRES   REMARKS
WALHALLA       FAIR      57  50  77 W12G20    29.69R
GRAFTON AIRPOR CLOUDY    55  50  82 S6        29.71R
VALLEY CITY AR FAIR      55  52  88 W9        29.79R
CANDO          FAIR      50  46  87 W10       29.75R
CAVALIER APRT  CLOUDY    59  50  72 W8        29.69R
GWINNER        MOCLDY    55  48  76 W7        29.82R
SHEYENNE NWR     N/A     57  49  76 W3        29.95S
ROLLA          MOCLDY    50  46  87 W10G16    29.75R
 ***** THE ABOVE OBSERVATIONS ARE NON NWS ARE NOT QUALITY
       CONTROLLED AND MAY MIS-REPORT RAIN FOR SNOW...
$$

  *****  WEATHER ACROSS NORTHERN MINNESOTA  *****

CITY           SKY/WX    TMP DP  RH WIND       PRES   REMARKS
FLAG ISLAND    CLOUDY    57  55  94 SW9       29.63R
WARROAD        CLOUDY    59  55  88 SW9       29.67R
ROSEAU         CLOUDY    61  54  77 SW7       29.68R
HALLOCK        MOCLDY    59  52  77 W13       29.69R
THF RVR FALLS  CLOUDY    59  52  77 SW10      29.72R
BAUDETTE       CLOUDY    57  53  86 S10       29.68R
WASKISH        CLOUDY    57  54  88 CALM      29.72R
CROOKSTON      CLOUDY    57  52  82 SW7       29.73R
STEPHEN NDAWN    N/A     59  52  77 W12         N/A
GREENBUSH NDAW   N/A     57  52  82 SW8         N/A
$$
  *****  WEATHER ACROSS CENTRAL AND WEST MINNESOTA  *****

CITY           SKY/WX    TMP DP  RH WIND       PRES   REMARKS
FOSSTON        CLOUDY    57  50  77 SW9       29.75R
BEMIDJI        CLOUDY    56  54  91 S7        29.75R
PARK RAPIDS    CLOUDY    55  54  96 S5        29.76S
ELBOW LAKE     FAIR      55  49  79 W5        29.80R
WADENA         CLEAR     54  52  94 CALM      29.79R FOG
DETROIT LAKES  CLOUDY    59  50  72 SW5       29.79R
MOORHEAD       NOT AVBL
FERGUS FALLS   CLOUDY    59  46  63 SW5       29.80R
MORRIS MN      PTCLDY    55  48  76 NW6       29.80R
STAPLES        MOCLDY    54  52  94 CALM      29.79S
$$
  *****  WEATHER ELSEWHERE ACROSS MINNESOTA  *****

CITY           SKY/WX    TMP DP  RH WIND       PRES   REMARKS
DULUTH         FOG       51  49  92 S8        29.81R VSB 3/4
INTRNTL FALLS  CLOUDY    53  50  89 S8        29.72R
ELY            CLOUDY    48  46  93 S7        29.79R
CLOQUET        CLOUDY    52  50  93 S8        29.81F FOG
WHEATON        CLEAR     54  48  82 CALM      29.82S
BRAINERD       CLOUDY    53  53 100 S6        29.80R FOG
HIBBING        CLOUDY    51  49  92 S5        29.80R FOG
ALEXANDRIA     PTCLDY    59  52  77 CALM      29.81R
SAINT CLOUD    CLOUDY    58  54  86 S6        29.81R
MINNEAPOLIS    CLOUDY    58  56  93 E3        29.81S FOG
$$

  *****  WEATHER ACROSS SOUTH DAKOTA  *****

CITY           SKY/WX    TMP DP  RH WIND       PRES   REMARKS
SIOUX FALLS    PTCLDY    61  53  75 W3        29.81R
BROOKINGS      NOT AVBL
WATERTOWN      PTCLDY    54  48  80 N3        29.83R
HURON          CLEAR     57  47  69 N7        29.84R
SISSETON         N/A     54  48  80 W5        29.80R
ABERDEEN       PTCLDY    57  48  72 W8        29.83R
MITCHELL       PTCLDY    64  50  60 N12       29.83R
PIERRE         MOCLDY    52  45  77 NW6       29.87R
MOBRIDGE       PTCLDY    53  48  83 NW6       29.84R
RAPID CITY     CLOUDY    52  41  66 N8        29.95R
$$

  *****  SOME WEATHER IN NEARBY STATES *****

CITY           SKY/WX    TMP DP  RH WIND       PRES   REMARKS
GLASGOW MT     CLEAR     53  34  48 CALM      29.85R
GREAT FALLS MT CLEAR     46  28  49 SW12      29.91S
CHEYENNE WY    CLEAR     39  35  86 N9        30.02R
SCOTTSBLUFF NE CLOUDY    49  46  90 CALM      29.99R
OMAHA NE       PTCLDY    67  62  84 E6        29.78R
DES MOINES IA  PTCLDY    66  63  90 SE5       29.81R FOG
DAVENPORT IA   NOT AVBL
CHICAGO IL     MOCLDY    66  53  63 SE10      29.90S
EAU CLAIRE WI  CLOUDY    56  55  97 CALM      29.84R
LA CROSSE WI   CLOUDY    64  56  75 E7        29.82R
$$

  *****  SOME NATIONAL WEATHER *****

CITY           SKY/WX    TMP DP  RH WIND       PRES   REMARKS
LA GUARDIA NY  CLOUDY    65  56  72 NE13      30.07R
RALEIGH NC     PTCLDY    64  62  93 CALM      30.04R
ATLANTA GA     PTCLDY    73  59  61 CALM      30.02R
NEW ORLEANS LA MOCLDY    79  75  87 SE7       29.93R
OKLAHOMA CITY  PTCLDY    82  65  56 S14G23    29.72R
ALBUQUERQUE NM MOCLDY    72  29  20 NW13      29.92R
SALT LAKE CITY PTCLDY    51  36  56 E5        30.16R
LOS ANGELES CA PTCLDY    67  62  84 W6        29.81R
BOISE ID       CLEAR     58  35  42 CALM      30.14S
SEATTLE WA     MOCLDY    62  47  57 CALM      30.18S
$$

*** WEATHER ACROSS MANITOBA...SASKATCHEWAN AND ONTARIO ***
                ***ONTARIO***

CITY           SKY/WX    TMP DP  RH WIND       PRES   REMARKS
GERALDTON      CLOUDY    54  50  87 S18       29.83R
THUNDER BAY    CLOUDY    50  50 100 NE3       29.82
SIOUX LOOKOUT  LGT RAIN  52  50  93 S9G17     29.67S
TORONTO        CLOUDY    61  57  88 E3        30.10R
BIG TROUT LK   CLOUDY    55  48  76 S14G23    29.52F
PICKLE LAKE    CLOUDY    50  48  93 S15G22    29.64S
DRYDEN         CLOUDY    52  50  93 S15G22    29.66R
KENORA         LGT RAIN  55  54  94 S8        29.63R
$$
                *** MANITOBA***

CITY           SKY/WX    TMP DP  RH WIND       PRES   REMARKS
BRANDON        CLOUDY    54  48  82 W12       29.70R
DAUPHIN        MOCLDY    52  46  82 W14G22    29.63R
ISLAND LAKE    CLOUDY    55  52  88 S12G18    29.36
PILOT MOUND      N/A     54  46  76 W10         N/A
THE PAS        DRIZZLE   46  45  93 NW17      29.55R
THOMPSON       DRIZZLE   46  46 100 W6        29.33R
WINNIPEG       CLOUDY    57  50  77 W12       29.63R
LYNN LAKE      LGT RAIN  45  45 100 NW9G18    29.44S FOG
CHURCHILL      CLOUDY    43  41  93 E10       29.35F
GILLAM         LGT RAIN  50  50 100 SE3       29.28F VSB 1/2
$$
                ***SASKATCHEWAN***

CITY           SKY/WX    TMP DP  RH WIND       PRES   REMARKS
ESTEVAN        MOCLDY    48  45  87 W7        29.79R
KINDERSLEY     NOT AVBL
LLOYDMINSTER   MOCLDY    46  36  66 W16       29.74R
PRINCE ALBERT  PTCLDY    46  37  71 SW3       29.65S
REGINA         PTCLDY    43  39  87 W8        29.76R
YORKTON        CLEAR     45  41  87 W9        29.68R
N. BATTLEFORD  MOCLDY    52  32  46 NW22G29   29.74R
LA RONGE       PTCLDY    37  36  93 NW3       29.63S
SASKATOON      PTCLDY    43  34  70 W8        29.73R
SWIFT CURRENT  MOCLDY    50  32  50 VRB2      29.79S
$$
NOTE: THESE ARE AUTOMATED STATIONS WITH LIMITED QUALITY CONTROL
      "FAIR" INDICATES FEW OR NO CLOUDS BELOW 12,000 FEET WITH NO
      SIGNIFICANT WEATHER AND/OR OBSTRUCTIONS TO VISIBILITY.
      SKY/WX - SKY CONDITION AND SIGNIFICANT WEATHER.
      TMP - AIR TEMPERATURE.    DP   - DEWPOINT TEMPERATURE.
      RH  - RELATIVE HUMIDITY.  PRES - PRESSURE.
      HX  - HEAT INDEX.         WCI  - WIND CHILL INDEX.
$


USA.gov is the U.S. government's official web portal to all federal, state and local government web resources and services.